• In Belarus
  • List of Countries
  • For 7 days
  • Water Temperature
  • Satellite Maps
  • Weather Map
  • Weather Widgets
  • user-avatar
    Login

    Hourly Weather Gagra

    Today, 20 September, Thursday

    Time Temperature Precipitation Wind Pressure Humidity
    00:00 +16°C° 0 mm 1 mps 739 mmHg 55%
    01:00 +16°C° 0 mm 2 mps 738 mmHg 53%
    02:00 +16°C° 0 mm 2 mps 738 mmHg 50%
    03:00 +17°C° 0 mm 2 mps 738 mmHg 45%
    04:00 +16°C° 0 mm 2 mps 738 mmHg 45%
    05:00 +16°C° 0 mm 2 mps 738 mmHg 45%
    06:00 +16°C° 0 mm 2 mps 738 mmHg 46%
    07:00 +19°C° 0 mm 2 mps 738 mmHg 44%
    08:00 +22°C° 0 mm 1 mps 738 mmHg 43%
    09:00 +25°C° 0 mm 1 mps 738 mmHg 41%
    10:00 +26°C° 0 mm 1 mps 738 mmHg 41%
    11:00 +27°C° 0 mm 1 mps 738 mmHg 41%
    12:00 +28°C° 0 mm 1 mps 738 mmHg 42%
    13:00 +28°C° 0 mm 2 mps 737 mmHg 44%
    14:00 +28°C° 0 mm 2 mps 737 mmHg 47%
    15:00 +28°C° 0 mm 3 mps 737 mmHg 49%
    16:00 +26°C° 0 mm 3 mps 737 mmHg 58%
    17:00 +24°C° 0 mm 3 mps 736 mmHg 67%
    18:00 +22°C° 0 mm 3 mps 736 mmHg 76%
    19:00 +21°C° 0 mm 2 mps 736 mmHg 75%
    20:00 +20°C° 0 mm 2 mps 736 mmHg 73%
    21:00 +19°C° 0 mm 2 mps 736 mmHg 72%
    22:00 +19°C° 0 mm 2 mps 736 mmHg 69%
    23:00 +19°C° 0 mm 2 mps 736 mmHg 66%

    Tomorrow, 21 September, Friday

    Time Temperature Precipitation Wind Pressure Humidity
    00:00 +20°C° 0 mm 1 mps 736 mmHg 64%
    01:00 +20°C° 0 mm 1 mps 736 mmHg 63%
    02:00 +20°C° 0 mm 1 mps 736 mmHg 63%
    03:00 +20°C° 0 mm 1 mps 735 mmHg 62%
    04:00 +19°C° 0 mm 1 mps 735 mmHg 61%
    05:00 +19°C° 0 mm 1 mps 735 mmHg 61%
    06:00 +19°C° 0 mm 1 mps 735 mmHg 60%
    07:00 +22°C° 0 mm 1 mps 736 mmHg 56%
    08:00 +24°C° 0 mm 1 mps 736 mmHg 52%
    09:00 +25°C° 0 mm 0 mps 736 mmHg 47%
    10:00 +28°C° 0 mm 1 mps 736 mmHg 46%
    11:00 +29°C° 0 mm 1 mps 736 mmHg 44%
    12:00 +30°C° 0 mm 1 mps 736 mmHg 43%
    13:00 +29°C° 0 mm 2 mps 736 mmHg 45%
    14:00 +29°C° 0 mm 2 mps 735 mmHg 47%
    15:00 +29°C° 0 mm 2 mps 735 mmHg 49%
    16:00 +27°C° 0 mm 2 mps 735 mmHg 58%
    17:00 +25°C° 0 mm 2 mps 735 mmHg 66%
    18:00 +23°C° 0 mm 2 mps 735 mmHg 75%
    19:00 +21°C° 0 mm 2 mps 735 mmHg 74%
    20:00 +21°C° 0 mm 2 mps 735 mmHg 73%
    21:00 +20°C° 0 mm 2 mps 735 mmHg 72%
    22:00 +20°C° 0 mm 2 mps 735 mmHg 70%
    23:00 +20°C° 0 mm 1 mps 735 mmHg 69%

    Day after tomorrow, 22 September, Saturday

    Time Temperature Precipitation Wind Pressure Humidity
    00:00 +20°C° 0 mm 1 mps 735 mmHg 68%
    01:00 +20°C° 0 mm 1 mps 735 mmHg 69%
    02:00 +20°C° 0 mm 1 mps 735 mmHg 71%
    03:00 +20°C° 0 mm 1 mps 735 mmHg 72%
    04:00 +20°C° 0 mm 1 mps 735 mmHg 71%
    05:00 +20°C° 0 mm 1 mps 735 mmHg 70%
    06:00 +20°C° 0 mm 1 mps 735 mmHg 70%
    07:00 +22°C° 0 mm 1 mps 735 mmHg 63%
    08:00 +23°C° 0 mm 0 mps 735 mmHg 56%
    09:00 +25°C° 0 mm 0 mps 736 mmHg 49%
    10:00 +28°C° 0 mm 1 mps 736 mmHg 48%
    11:00 +28°C° 0 mm 1 mps 736 mmHg 46%
    12:00 +29°C° 0 mm 1 mps 735 mmHg 45%
    13:00 +29°C° 0 mm 2 mps 735 mmHg 48%
    14:00 +28°C° 0 mm 2 mps 735 mmHg 51%
    15:00 +28°C° 0 mm 2 mps 735 mmHg 54%
    16:00 +26°C° 0.1 mm 2 mps 735 mmHg 63%
    17:00 +25°C° 0.1 mm 2 mps 735 mmHg 71%
    18:00 +23°C° 0.1 mm 2 mps 735 mmHg 80%
    19:00 +22°C° 0.2 mm 1 mps 735 mmHg 80%
    20:00 +22°C° 0.2 mm 1 mps 735 mmHg 81%
    21:00 +21°C° 0.2 mm 1 mps 735 mmHg 81%
    22:00 +21°C° 0 mm 1 mps 735 mmHg 82%
    23:00 +21°C° 0 mm 1 mps 735 mmHg 82%

    23 September, Sunday

    Time Temperature Precipitation Wind Pressure Humidity
    00:00 +20°C° 0 mm 1 mps 735 mmHg 83%
    01:00 +20°C° 0 mm 1 mps 735 mmHg 83%
    02:00 +20°C° 0 mm 1 mps 735 mmHg 83%
    03:00 +19°C° 0 mm 1 mps 735 mmHg 83%
    04:00 +19°C° 0 mm 1 mps 735 mmHg 80%
    05:00 +19°C° 0 mm 1 mps 735 mmHg 77%
    06:00 +19°C° 0 mm 1 mps 735 mmHg 75%
    07:00 +21°C° 0 mm 1 mps 736 mmHg 69%
    08:00 +23°C° 0 mm 1 mps 736 mmHg 63%
    09:00 +25°C° 0 mm 1 mps 736 mmHg 58%
    10:00 +26°C° 0 mm 2 mps 736 mmHg 56%
    11:00 +26°C° 0 mm 2 mps 736 mmHg 55%
    12:00 +27°C° 0 mm 2 mps 736 mmHg 54%
    13:00 +27°C° 0.4 mm 2 mps 736 mmHg 60%
    14:00 +26°C° 0.4 mm 2 mps 736 mmHg 67%
    15:00 +25°C° 0.4 mm 2 mps 736 mmHg 74%
    16:00 +24°C° 0.1 mm 2 mps 736 mmHg 79%
    17:00 +23°C° 0.1 mm 2 mps 736 mmHg 85%
    18:00 +21°C° 0.1 mm 1 mps 736 mmHg 90%
    19:00 +21°C° 0.2 mm 1 mps 737 mmHg 91%
    20:00 +20°C° 0.2 mm 2 mps 737 mmHg 91%
    21:00 +19°C° 0.2 mm 2 mps 737 mmHg 91%
    22:00 +19°C° 0.2 mm 2 mps 737 mmHg 91%
    23:00 +19°C° 0.2 mm 2 mps 737 mmHg 91%

    24 September, Monday

    Time Temperature Precipitation Wind Pressure Humidity
    00:00 +18°C° 0.2 mm 2 mps 737 mmHg 91%
    01:00 +18°C° 0.1 mm 2 mps 737 mmHg 90%
    02:00 +17°C° 0.1 mm 3 mps 737 mmHg 89%
    03:00 +17°C° 0.1 mm 3 mps 737 mmHg 89%
    04:00 +17°C° 0.1 mm 3 mps 737 mmHg 87%
    05:00 +17°C° 0.1 mm 3 mps 737 mmHg 84%
    06:00 +18°C° 0.1 mm 4 mps 737 mmHg 82%
    07:00 +19°C° 0 mm 4 mps 737 mmHg 78%
    08:00 +20°C° 0 mm 4 mps 737 mmHg 75%
    09:00 +21°C° 0 mm 5 mps 737 mmHg 71%
    10:00 +23°C° 0 mm 5 mps 737 mmHg 66%
    11:00 +25°C° 0 mm 5 mps 737 mmHg 60%
    12:00 +26°C° 0 mm 5 mps 737 mmHg 55%
    13:00 +26°C° 0 mm 4 mps 736 mmHg 58%
    14:00 +25°C° 0 mm 4 mps 736 mmHg 60%
    15:00 +25°C° 0 mm 3 mps 736 mmHg 62%
    16:00 +24°C° 0 mm 3 mps 736 mmHg 71%
    17:00 +21°C° 0 mm 3 mps 736 mmHg 79%
    18:00 +20°C° 0 mm 2 mps 736 mmHg 87%
    19:00 +19°C° 0 mm 2 mps 735 mmHg 87%
    20:00 +18°C° 0 mm 3 mps 735 mmHg 86%
    21:00 +18°C° 0 mm 3 mps 735 mmHg 86%
    22:00 +17°C° 0 mm 3 mps 735 mmHg 82%
    23:00 +17°C° 0 mm 3 mps 735 mmHg 78%

    25 September, Tuesday

    Time Temperature Precipitation Wind Pressure Humidity
    00:00 +17°C° 0 mm 2 mps 735 mmHg 74%
    01:00 +17°C° 0 mm 2 mps 735 mmHg 72%
    02:00 +17°C° 0 mm 2 mps 735 mmHg 70%
    03:00 +17°C° 0 mm 2 mps 735 mmHg 68%
    04:00 +17°C° 0 mm 2 mps 735 mmHg 68%
    05:00 +17°C° 0 mm 2 mps 735 mmHg 68%
    06:00 +17°C° 0 mm 2 mps 735 mmHg 68%
    07:00 +20°C° 0 mm 1 mps 735 mmHg 64%
    08:00 +22°C° 0 mm 1 mps 736 mmHg 60%
    09:00 +25°C° 0 mm 1 mps 736 mmHg 56%
    10:00 +26°C° 0 mm 1 mps 736 mmHg 53%
    11:00 +26°C° 0 mm 2 mps 736 mmHg 51%
    12:00 +27°C° 0 mm 2 mps 736 mmHg 48%
    13:00 +27°C° 0 mm 2 mps 736 mmHg 51%
    14:00 +27°C° 0 mm 3 mps 736 mmHg 54%
    15:00 +26°C° 0 mm 3 mps 736 mmHg 56%
    16:00 +25°C° 0 mm 3 mps 736 mmHg 66%
    17:00 +22°C° 0 mm 3 mps 736 mmHg 76%
    18:00 +20°C° 0 mm 3 mps 736 mmHg 86%
    19:00 +19°C° 0 mm 2 mps 736 mmHg 86%
    20:00 +19°C° 0 mm 2 mps 736 mmHg 87%
    21:00 +19°C° 0 mm 2 mps 737 mmHg 87%
    22:00 +19°C° 0 mm 1 mps 736 mmHg 87%
    23:00 +19°C° 0 mm 1 mps 736 mmHg 87%
    Show more